Weather Roundup
Issued by NWS

Home | Current Version | Previous Version | Text Only | Print | Product List | Glossary On
Versions: 1 2 3 4 5 6 7 8 9 10 11 12 13 14 15 16 17 18 19 20 21 22 23 24 25 26 27 28 29 30 31 32 33 34 35 36 37 38 39 40 41 42 43 44 45 46 47 48 49 50
000
NZUS93 KARX 262310
HRRWXR

CURRENT HOURLY OBSERVATIONS ACROSS
MUCH OF THE UPPER MISSISSIPPI VALLEY
NATIONAL WEATHER SERVICE LA CROSSE WI
600 PM CDT FRI MAY 26 2017


...SOUTHEAST MINNESOTA...


CITY           SKY/WX    TMP DP  RH WIND       PRES   REMARKS
ROCHESTER      MOSUNNY   72  58  61 S14       29.78F
ROCHESTER/MAYO FAIR      73  55  52 SE10G17   29.78S
WINONA         SUNNY     73  55  53 SW5       29.79S
AUSTIN         MOSUNNY   72  55  56 S9        29.77S
ALBERT LEA     CLOUDY    77  57  50 CALM      29.76S
DODGE CENTER   CLOUDY    73  55  53 S9G16     29.77S
PRESTON        SUNNY     70  56  59 SE8       29.80F
OWATONNA       CLOUDY    79  54  41 S8        29.75S
FARIBAULT      SUNNY     79  52  38 SW10      29.75S
$$

...ELSEWHERE IN MINNESOTA...


CITY           SKY/WX    TMP DP  RH WIND       PRES   REMARKS
MINNEAPOLIS    MOSUNNY   79  51  37 W16G22    29.71F
INTNL FALLS    MOSUNNY   74  40  29 W13G20    29.64R
DULUTH         MOSUNNY   64  52  64 CALM      29.71R THUNDER
RED WING       SUNNY     75  54  46 S10       29.73S
REDWOOD FALLS  SUNNY     74  44  34 W12       29.77R
MANKATO        SUNNY     77  51  40 W15       29.75S
WORTHINGTON    SUNNY     73  44  35 W14       29.81S
FAIRMONT       SUNNY     77  48  35 W15       29.77R
$$

...SOUTHWEST WISCONSIN...


CITY           SKY/WX    TMP DP  RH WIND       PRES   REMARKS
LA CROSSE      MOSUNNY   73  57  57 S8        29.79R
PRAIRIE DU CHI MOSUNNY   69  55  62 S5        29.81S
BOSCOBEL       MOSUNNY   70  56  61 VRB5      29.82R
LONE ROCK      CLOUDY    68  54  60 SE7       29.81F
PLATTEVILLE    CLOUDY    66  59  77 E5        29.82S
FORT MC COY    MOSUNNY   70  55  59 S7        29.82R
CAMP DOUGLAS   MOSUNNY   69  53  57 S7        29.81R
MAUSTON-NEW LI MOCLDY    69  54  58 S6        29.81R
VIROQUA        MOCLDY    68  57  67 MISG      29.82S
WIS DELLS      CLOUDY    65  52  62 S6        29.82S
$$

...ELSEWHERE IN WISCONSIN...


CITY           SKY/WX    TMP DP  RH WIND       PRES   REMARKS
MILWAUKEE      LGT RAIN  59  56  89 SE5       29.85F
MADISON        CLOUDY    64  57  78 SE6       29.82F
GREEN BAY      MOSUNNY   69  57  65 S10       29.83S
EAU CLAIRE     MOSUNNY   73  55  53 SW12      29.75F
BLACK RVR FLS  MOCLDY    72  52  49 SW7       29.79S
MEDFORD        CLOUDY    67  53  59 SW10      29.79S
WAUSAU         LGT RAIN  70  53  54 S10       29.78S
WIS RAPIDS     PTSUNNY   71  56  58 SW10      29.82R
MARSHFIELD     MOSUNNY   68  52  56 S8        29.79R
RICE LAKE      MOSUNNY   74  55  51 S13       29.76S
$$

...NORTHEAST IOWA...


CITY           SKY/WX    TMP DP  RH WIND       PRES   REMARKS
WATERLOO       MOSUNNY   70  59  68 SE13      29.80R
DUBUQUE        CLOUDY    64  59  83 E8        29.81S
DECORAH        PTSUNNY   68  57  68 VRB5      29.80S
MASON CITY     MOSUNNY   76  56  49 SE5       29.78F
CHARLES CITY   MOSUNNY   72  57  60 SE9       29.80F
OELWEIN        MOSUNNY   70  59  68 SE8       29.82S
$$

...ELSEWHERE IN IOWA...


CITY           SKY/WX    TMP DP  RH WIND       PRES   REMARKS
DES MOINES     MOSUNNY   83  58  42 N6        29.76F
IOWA CITY      CLOUDY    70  61  73 N5        29.81R
FORT DODGE     MOSUNNY   77  54  44 NW5       29.78S
MARSHALLTOWN   MOSUNNY   75  60  59 E6        29.78R
CEDAR RAPIDS   CLOUDY    67  62  84 NE3       29.80R
$$

...NORTHERN ILLINOIS...


CITY           SKY/WX    TMP DP  RH WIND       PRES   REMARKS
CHICAGO-OHARE  LGT RAIN  56  53  90 NE10      29.81R FOG
CHICAGO-MIDWAY RAIN      57  55  93 VRB7      29.82R FOG
MOLINE         CLOUDY    69  61  75 NE8       29.77R
ROCKFORD       LGT RAIN  60  57  89 E12G20    29.82S FOG
PEORIA         CLOUDY    72  67  84 NW3       29.75S
$$

NOTE: "FAIR" INDICATES FEW OR NO CLOUDS BELOW 12,000 FEET WITH NO
SIGNIFICANT WEATHER AND/OR OBSTRUCTIONS TO VISIBILITY. WIND
SPEEDS ARE IN MILES-PER-HOUR.




USA.gov is the U.S. government's official web portal to all federal, state and local government web resources and services.